| time (UTC) | temp F | wind direction | speed MPH | gust MPH | rain 1hr in | rain 24hr in | rain mn in | humidity % | barometer mb |
| 20260504234342 | 59 | 61 | 13.0 | 17.0 | 0.00 | 0.00 | 0.00 | 76 | 1027.3 |
| 20260504233841 | 59 | 51 | 11.0 | 15.0 | 0.00 | 0.00 | 0.00 | 76 | 1027.2 |
| 20260504233340 | 59 | 40 | 9.0 | 19.0 | 0.00 | 0.00 | 0.00 | 76 | 1027.3 |
| 20260504232839 | 59 | 68 | 11.0 | 19.0 | 0.00 | 0.00 | 0.00 | 75 | 1027.3 |
| 20260504232639 | 59 | 64 | 13.0 | 18.0 | 0.00 | 0.00 | 0.00 | 76 | 1027.2 |
| 20260504232150 | 59 | 65 | 12.0 | 19.0 | 0.00 | 0.00 | 0.00 | 76 | 1027.3 |
| 20260504231337 | 59 | 48 | 11.0 | 19.0 | 0.00 | 0.00 | 0.00 | 75 | 1027.2 |
| 20260504230835 | 59 | 55 | 12.0 | 17.0 | 0.00 | 0.00 | 0.00 | 75 | 1027.2 |
| 20260504230334 | 59 | 68 | 11.0 | 16.0 | 0.00 | 0.00 | 0.00 | 75 | 1027.3 |
| 20260504225836 | 59 | 57 | 12.0 | 16.0 | 0.00 | 0.00 | 0.00 | 75 | 1027.3 |
| 20260504225649 | 59 | 79 | 11.0 | 16.0 | 0.00 | 0.00 | 0.00 | 76 | 1027.3 |
| 20260504224832 | 59 | 40 | 9.0 | 16.0 | 0.00 | 0.00 | 0.00 | 76 | 1027.1 |
| 20260504224331 | 59 | 54 | 12.0 | 16.0 | 0.00 | 0.00 | 0.00 | 75 | 1027.1 |
| 20260504223832 | 59 | 53 | 12.0 | 15.0 | 0.00 | 0.00 | 0.00 | 74 | 1027.2 |
| 20260504223330 | 59 | 41 | 9.0 | 16.0 | 0.00 | 0.00 | 0.00 | 73 | 1027.1 |
| 20260504222832 | 59 | 37 | 12.0 | 16.0 | 0.00 | 0.00 | 0.00 | 73 | 1027.1 |
| 20260504222330 | 59 | 44 | 10.0 | 17.0 | 0.00 | 0.00 | 0.00 | 73 | 1027.0 |
| 20260504221832 | 59 | 75 | 11.0 | 18.0 | 0.00 | 0.00 | 0.00 | 73 | 1027.0 |
| 20260504221332 | 59 | 54 | 9.0 | 20.0 | 0.00 | 0.00 | 0.00 | 74 | 1026.9 |
| 20260504220830 | 59 | 57 | 11.0 | 20.0 | 0.00 | 0.00 | 0.00 | 73 | 1026.9 |
| 20260504220654 | 59 | 81 | 12.0 | 19.0 | 0.00 | 0.00 | 0.00 | 74 | 1026.9 |
| 20260504215832 | 59 | 68 | 15.0 | 19.0 | 0.00 | 0.00 | 0.00 | 76 | 1026.8 |
| 20260504215646 | 59 | 54 | 11.0 | 18.0 | 0.00 | 0.00 | 0.00 | 76 | 1026.7 |
| 20260504215142 | 59 | 65 | 11.0 | 19.0 | 0.00 | 0.00 | 0.00 | 76 | 1026.6 |
| 20260504214331 | 59 | 60 | 15.0 | 19.0 | 0.00 | 0.00 | 0.00 | 76 | 1026.6 |
| 20260504214211 | 59 | 53 | 12.0 | 18.0 | 0.00 | 0.00 | 0.00 | 77 | 1026.6 |
| 20260504213331 | 59 | 43 | 9.0 | 15.0 | 0.00 | 0.00 | 0.00 | 77 | 1026.6 |
| 20260504212831 | 59 | 64 | 10.0 | 16.0 | 0.00 | 0.00 | 0.00 | 77 | 1026.6 |
| 20260504212331 | 59 | 43 | 9.0 | 16.0 | 0.00 | 0.00 | 0.00 | 77 | 1026.5 |
| 20260504211829 | 59 | 36 | 12.0 | 16.0 | 0.00 | 0.00 | 0.00 | 77 | 1026.5 |
| 20260504211331 | 59 | 38 | 9.0 | 16.0 | 0.00 | 0.00 | 0.00 | 77 | 1026.4 |
| 20260504210825 | 59 | 53 | 11.0 | 17.0 | 0.00 | 0.00 | 0.00 | 77 | 1026.3 |
| 20260504210320 | 59 | 41 | 8.0 | 17.0 | 0.00 | 0.00 | 0.00 | 77 | 1026.4 |
| 20260504205820 | 59 | 58 | 11.0 | 17.0 | 0.00 | 0.00 | 0.00 | 77 | 1026.2 |
| 20260504205319 | 59 | 37 | 9.0 | 14.0 | 0.00 | 0.00 | 0.00 | 77 | 1026.2 |
| 20260504204813 | 59 | 64 | 10.0 | 14.0 | 0.00 | 0.00 | 0.00 | 77 | 1026.1 |
| 20260504204625 | 59 | 46 | 9.0 | 15.0 | 0.00 | 0.00 | 0.00 | 77 | 1026.0 |
| 20260504204144 | 59 | 36 | 13.0 | 15.0 | 0.00 | 0.00 | 0.00 | 77 | 1025.9 |
| 20260504203306 | 59 | 50 | 11.0 | 17.0 | 0.00 | 0.00 | 0.00 | 77 | 1025.9 |
| 20260504202808 | 59 | 38 | 12.0 | 17.0 | 0.00 | 0.00 | 0.00 | 76 | 1025.8 |
| 20260504202304 | 59 | 40 | 9.0 | 15.0 | 0.00 | 0.00 | 0.00 | 76 | 1025.8 |
| 20260504201757 | 59 | 30 | 12.0 | 15.0 | 0.00 | 0.00 | 0.00 | 76 | 1025.7 |
| 20260504201255 | 60 | 33 | 11.0 | 15.0 | 0.00 | 0.00 | 0.00 | 76 | 1025.7 |
| 20260504200751 | 60 | 37 | 9.0 | 15.0 | 0.00 | 0.00 | 0.00 | 76 | 1025.7 |
| 20260504200247 | 60 | 30 | 11.0 | 16.0 | 0.00 | 0.00 | 0.00 | 76 | 1025.6 |
| 20260504195749 | 60 | 30 | 11.0 | 17.0 | 0.00 | 0.00 | 0.00 | 75 | 1025.6 |
| 20260504195611 | 60 | 47 | 10.0 | 21.0 | 0.00 | 0.00 | 0.00 | 75 | 1025.6 |
| 20260504195107 | 60 | 57 | 11.0 | 21.0 | 0.00 | 0.00 | 0.00 | 76 | 1025.5 |
| 20260504194239 | 60 | 44 | 15.0 | 20.0 | 0.00 | 0.00 | 0.00 | 75 | 1025.3 |
| 20260504193740 | 60 | 41 | 15.0 | 21.0 | 0.00 | 0.00 | 0.00 | 75 | 1025.2 |
| 20260504193611 | 60 | 53 | 15.0 | 21.0 | 0.00 | 0.00 | 0.00 | 75 | 1025.3 |
| 20260504193101 | 60 | 46 | 12.0 | 20.0 | 0.00 | 0.00 | 0.00 | 75 | 1025.2 |
| 20260504192546 | 60 | 68 | 13.0 | 23.0 | 0.00 | 0.00 | 0.00 | 75 | 1025.0 |
| 20260504192055 | 60 | 60 | 18.0 | 23.0 | 0.00 | 0.00 | 0.00 | 74 | 1025.0 |
| 20260504191234 | 61 | 48 | 15.0 | 22.0 | 0.00 | 0.00 | 0.00 | 74 | 1025.0 |
| 20260504190734 | 61 | 61 | 13.0 | 21.0 | 0.00 | 0.00 | 0.00 | 74 | 1025.0 |
| 20260504190236 | 61 | 55 | 15.0 | 21.0 | 0.00 | 0.00 | 0.00 | 74 | 1025.0 |
| 20260504190120 | 61 | 30 | 14.0 | 22.0 | 0.00 | 0.00 | 0.00 | 73 | 1025.0 |
| 20260504185236 | 61 | 50 | 17.0 | 24.0 | 0.00 | 0.00 | 0.00 | 73 | 1025.0 |
| 20260504184734 | 61 | 54 | 15.0 | 24.0 | 0.00 | 0.00 | 0.00 | 73 | 1025.0 |
| 20260504184601 | 61 | 30 | 11.0 | 23.0 | 0.00 | 0.00 | 0.00 | 73 | 1025.0 |
| 20260504183732 | 61 | 64 | 15.0 | 23.0 | 0.00 | 0.00 | 0.00 | 73 | 1024.9 |
| 20260504183233 | 61 | 44 | 14.0 | 20.0 | 0.00 | 0.00 | 0.00 | 72 | 1025.0 |
| 20260504182734 | 62 | 67 | 13.0 | 21.0 | 0.00 | 0.00 | 0.00 | 73 | 1024.9 |
| 20260504182233 | 62 | 60 | 14.0 | 21.0 | 0.00 | 0.00 | 0.00 | 73 | 1025.0 |
| 20260504181733 | 61 | 60 | 13.0 | 20.0 | 0.00 | 0.00 | 0.00 | 73 | 1024.9 |
| 20260504181232 | 61 | 62 | 14.0 | 20.0 | 0.00 | 0.00 | 0.00 | 73 | 1025.0 |
| 20260504181106 | 61 | 54 | 15.0 | 23.0 | 0.00 | 0.00 | 0.00 | 73 | 1024.9 |
| 20260504180234 | 61 | 36 | 18.0 | 23.0 | 0.00 | 0.00 | 0.00 | 72 | 1025.0 |
| 20260504175736 | 62 | 50 | 13.0 | 22.0 | 0.00 | 0.00 | 0.00 | 73 | 1024.9 |
| 20260504175234 | 62 | 38 | 17.0 | 22.0 | 0.00 | 0.00 | 0.00 | 73 | 1024.9 |
| 20260504175050 | 62 | 44 | 15.0 | 23.0 | 0.00 | 0.00 | 0.00 | 74 | 1024.7 |
| 20260504174233 | 62 | 46 | 16.0 | 23.0 | 0.00 | 0.00 | 0.00 | 72 | 1024.8 |
| 20260504173734 | 62 | 74 | 15.0 | 28.0 | 0.00 | 0.00 | 0.00 | 73 | 1024.8 |
| 20260504173234 | 62 | 38 | 15.0 | 28.0 | 0.00 | 0.00 | 0.00 | 72 | 1024.8 |
| 20260504172732 | 62 | 74 | 13.0 | 22.0 | 0.00 | 0.00 | 0.00 | 73 | 1024.8 |
| 20260504172233 | 62 | 27 | 15.0 | 22.0 | 0.00 | 0.00 | 0.00 | 73 | 1024.7 |
| 20260504171748 | 62 | 33 | 16.0 | 23.0 | 0.00 | 0.00 | 0.00 | 72 | 1024.7 |
| 20260504171235 | 62 | 30 | 14.0 | 23.0 | 0.00 | 0.00 | 0.00 | 73 | 1024.7 |
| 20260504170734 | 62 | 27 | 15.0 | 24.0 | 0.00 | 0.00 | 0.00 | 72 | 1024.8 |
| 20260504170553 | 62 | 38 | 16.0 | 24.0 | 0.00 | 0.00 | 0.00 | 71 | 1024.8 |
| 20260504170128 | 63 | 36 | 13.0 | 23.0 | 0.00 | 0.00 | 0.00 | 71 | 1024.7 |
| 20260504160329 | 62 | 48 | 17.0 | 28.0 | 0.00 | 0.00 | 0.00 | 68 | 1024.6 |
| 20260504150708 | 63 | 85 | 17.0 | 24.0 | 0.00 | 0.00 | 0.00 | 70 | 1024.8 |
| 20260504150207 | 63 | 40 | 19.0 | 24.0 | 0.00 | 0.00 | 0.00 | 68 | 1024.8 |
| 20260504140647 | 63 | 79 | 16.0 | 26.0 | 0.00 | 0.00 | 0.00 | 68 | 1025.1 |
| 20260504140507 | 63 | 58 | 19.0 | 26.0 | 0.00 | 0.00 | 0.00 | 67 | 1024.9 |
| 20260504130630 | 62 | 58 | 15.0 | 26.0 | 0.00 | 0.00 | 0.00 | 69 | 1025.3 |
| 20260504130128 | 62 | 77 | 17.0 | 27.0 | 0.00 | 0.00 | 0.00 | 69 | 1025.2 |
| 20260504110537 | 62 | 85 | 17.0 | 20.0 | 0.00 | 0.00 | 0.00 | 69 | 1025.3 |
| 20260504081937 | 58 | 88 | 10.0 | 17.0 | 0.00 | 0.00 | 0.00 | 78 | 1024.5 |
| 20260504081435 | 58 | 84 | 10.0 | 19.0 | 0.00 | 0.00 | 0.00 | 77 | 1024.5 |
| 20260504080934 | 59 | 93 | 14.0 | 19.0 | 0.00 | 0.00 | 0.00 | 78 | 1024.5 |
| 20260504080434 | 58 | 79 | 11.0 | 16.0 | 0.00 | 0.00 | 0.00 | 79 | 1024.4 |
| 20260504050336 | 56 | 65 | 6.0 | 9.0 | 0.00 | 0.00 | 0.00 | 79 | 1024.1 |
| 20260504045835 | 56 | 38 | 6.0 | 10.0 | 0.00 | 0.00 | 0.00 | 79 | 1024.2 |
| 20260504045334 | 56 | 41 | 4.0 | 10.0 | 0.00 | 0.00 | 0.00 | 79 | 1024.2 |
| 20260504044835 | 56 | 41 | 5.0 | 10.0 | 0.00 | 0.00 | 0.00 | 78 | 1024.2 |
| 20260504044335 | 57 | 51 | 5.0 | 10.0 | 0.00 | 0.00 | 0.00 | 78 | 1024.2 |
| 20260504043834 | 57 | 53 | 6.0 | 10.0 | 0.00 | 0.00 | 0.00 | 78 | 1024.2 |
| 20260504043334 | 57 | 46 | 5.0 | 10.0 | 0.00 | 0.00 | 0.00 | 77 | 1024.2 |
| 20260504043157 | 57 | 74 | 6.0 | 12.0 | 0.00 | 0.00 | 0.00 | 76 | 1024.2 |
| 20260504042329 | 57 | 93 | 8.0 | 12.0 | 0.00 | 0.00 | 0.00 | 76 | 1024.2 |
| 20260504041826 | 57 | 84 | 6.0 | 11.0 | 0.00 | 0.00 | 0.00 | 77 | 1024.2 |
| 20260504041644 | 56 | 84 | 8.0 | 11.0 | 0.00 | 0.00 | 0.00 | 78 | 1024.2 |
| 20260504040822 | 56 | 81 | 7.0 | 11.0 | 0.00 | 0.00 | 0.00 | 79 | 1024.3 |
| 20260504040319 | 56 | 74 | 7.0 | 12.0 | 0.00 | 0.00 | 0.00 | 79 | 1024.2 |
| 20260504035818 | 56 | 53 | 7.0 | 12.0 | 0.00 | 0.00 | 0.00 | 79 | 1024.2 |
| 20260504035315 | 56 | 30 | 9.0 | 12.0 | 0.00 | 0.00 | 0.00 | 79 | 1024.1 |
| 20260504034813 | 56 | 30 | 7.0 | 11.0 | 0.00 | 0.00 | 0.00 | 78 | 1024.1 |
| 20260504034312 | 56 | 31 | 6.0 | 10.0 | 0.00 | 0.00 | 0.00 | 78 | 1024.0 |
| 20260504033808 | 56 | 30 | 6.0 | 9.0 | 0.00 | 0.00 | 0.00 | 77 | 1024.0 |
| 20260504033308 | 57 | 30 | 4.0 | 9.0 | 0.00 | 0.00 | 0.00 | 76 | 1024.1 |
| 20260504032807 | 57 | 43 | 3.0 | 11.0 | 0.00 | 0.00 | 0.00 | 75 | 1024.1 |
| 20260504032647 | 57 | 77 | 4.0 | 11.0 | 0.00 | 0.00 | 0.00 | 75 | 1024.1 |
| 20260504031807 | 57 | 79 | 6.0 | 15.0 | 0.00 | 0.00 | 0.00 | 76 | 1024.2 |
| 20260504031308 | 57 | 92 | 9.0 | 16.0 | 0.00 | 0.00 | 0.00 | 76 | 1024.2 |
| 20260504031124 | 57 | 98 | 11.0 | 16.0 | 0.00 | 0.00 | 0.00 | 78 | 1024.1 |
| 20260504030307 | 57 | 69 | 10.0 | 17.0 | 0.00 | 0.00 | 0.00 | 78 | 1024.1 |
| 20260504025806 | 57 | 67 | 12.0 | 17.0 | 0.00 | 0.00 | 0.00 | 78 | 1024.0 |
| 20260504025307 | 57 | 44 | 12.0 | 16.0 | 0.00 | 0.00 | 0.00 | 78 | 1024.0 |
| 20260504025123 | 56 | 41 | 11.0 | 15.0 | 0.00 | 0.00 | 0.00 | 78 | 1024.0 |
| 20260504024305 | 56 | 44 | 9.0 | 12.0 | 0.00 | 0.00 | 0.00 | 78 | 1024.1 |
| 20260504023804 | 56 | 37 | 8.0 | 11.0 | 0.00 | 0.00 | 0.00 | 78 | 1024.0 |
| 20260504023304 | 57 | 30 | 5.0 | 9.0 | 0.00 | 0.00 | 0.00 | 78 | 1024.1 |
| 20260504023123 | 57 | 34 | 6.0 | 9.0 | 0.00 | 0.00 | 0.00 | 77 | 1024.1 |
| 20260504022305 | 57 | 65 | 4.0 | 11.0 | 0.00 | 0.00 | 0.00 | 77 | 1024.2 |
| 20260504021805 | 57 | 79 | 5.0 | 14.0 | 0.00 | 0.00 | 0.00 | 77 | 1024.2 |
| 20260504021303 | 57 | 92 | 8.0 | 14.0 | 0.00 | 0.00 | 0.00 | 77 | 1024.3 |
| 20260504020805 | 57 | 102 | 10.0 | 15.0 | 0.00 | 0.00 | 0.00 | 79 | 1024.3 |
| 20260504020307 | 57 | 88 | 10.0 | 18.0 | 0.00 | 0.00 | 0.00 | 80 | 1024.3 |
| 20260504015807 | 57 | 57 | 11.0 | 18.0 | 0.00 | 0.00 | 0.00 | 80 | 1024.3 |
| 20260504015306 | 57 | 61 | 9.0 | 13.0 | 0.00 | 0.00 | 0.00 | 80 | 1024.2 |
| 20260504014759 | 57 | 53 | 8.0 | 13.0 | 0.00 | 0.00 | 0.00 | 80 | 1024.1 |
| 20260504014255 | 57 | 55 | 6.0 | 11.0 | 0.00 | 0.00 | 0.00 | 80 | 1024.2 |
| 20260504013753 | 57 | 30 | 7.0 | 12.0 | 0.00 | 0.00 | 0.00 | 80 | 1024.1 |
| 20260504013251 | 57 | 30 | 9.0 | 12.0 | 0.00 | 0.00 | 0.00 | 80 | 1024.2 |
| 20260504012746 | 57 | 30 | 6.0 | 10.0 | 0.00 | 0.00 | 0.00 | 79 | 1024.3 |
| 20260504012245 | 58 | 30 | 5.0 | 10.0 | 0.00 | 0.00 | 0.00 | 79 | 1024.4 |
| 20260504011741 | 57 | 65 | 5.0 | 12.0 | 0.00 | 0.00 | 0.00 | 80 | 1024.5 |
| 20260504011237 | 57 | 68 | 7.0 | 12.0 | 0.00 | 0.00 | 0.00 | 80 | 1024.4 |
| 20260504010735 | 57 | 68 | 9.0 | 12.0 | 0.00 | 0.00 | 0.00 | 80 | 1024.5 |
| 20260504010558 | 57 | 69 | 9.0 | 13.0 | 0.00 | 0.00 | 0.00 | 80 | 1024.6 |
| 20260504005735 | 57 | 54 | 9.0 | 16.0 | 0.00 | 0.00 | 0.00 | 79 | 1024.4 |
| 20260504005608 | 58 | 77 | 11.0 | 18.0 | 0.00 | 0.00 | 0.00 | 79 | 1024.4 |
| 20260504004731 | 57 | 91 | 11.0 | 18.0 | 0.00 | 0.00 | 0.00 | 79 | 1024.2 |
| 20260504004227 | 57 | 75 | 11.0 | 19.0 | 0.00 | 0.00 | 0.00 | 79 | 1024.3 |
| 20260504004048 | 57 | 58 | 15.0 | 19.0 | 0.00 | 0.00 | 0.00 | 79 | 1024.1 |
| 20260504003226 | 57 | 50 | 11.0 | 18.0 | 0.00 | 0.00 | 0.00 | 78 | 1024.2 |
| 20260504002726 | 57 | 43 | 10.0 | 18.0 | 0.00 | 0.00 | 0.00 | 78 | 1024.2 |
| 20260504002222 | 57 | 33 | 6.0 | 10.0 | 0.00 | 0.00 | 0.00 | 78 | 1024.3 |
| 20260504001720 | 57 | 36 | 5.0 | 10.0 | 0.00 | 0.00 | 0.00 | 78 | 1024.3 |
| 20260504001218 | 57 | 72 | 6.0 | 11.0 | 0.00 | 0.00 | 0.00 | 77 | 1024.3 |
| 20260504000836 | 58 | 62 | 7.0 | 11.0 | 0.00 | 0.00 | 0.00 | 77 | 1024.3 |
| 20260503235715 | 58 | 81 | 7.0 | 16.0 | 0.00 | 0.00 | 0.00 | 75 | 1024.3 |
| 20260503235211 | 58 | 93 | 11.0 | 17.0 | 0.00 | 0.00 | 0.00 | 75 | 1024.3 |